Year,Month,Day,Hour,Minute,Value (Times are PST for temperature in C)
2019,09,29,00,00,8.30
2019,09,29,00,01,8.30
2019,09,29,00,02,8.20
2019,09,29,00,03,8.20
2019,09,29,00,04,8.20
2019,09,29,00,05,8.20
2019,09,29,00,06,8.10
2019,09,29,00,07,8.10
2019,09,29,00,08,8.20
2019,09,29,00,09,8.20
2019,09,29,00,10,8.20
2019,09,29,00,11,8.20
2019,09,29,00,12,8.20
2019,09,29,00,13,8.20
2019,09,29,00,14,8.20
2019,09,29,00,15,8.30
2019,09,29,00,16,8.30
2019,09,29,00,17,8.30
2019,09,29,00,18,8.30
2019,09,29,00,19,8.30
2019,09,29,00,20,8.30
2019,09,29,00,21,8.30
2019,09,29,00,22,8.30
2019,09,29,00,23,8.30
2019,09,29,00,24,8.30
2019,09,29,00,25,8.30
2019,09,29,00,26,8.30
2019,09,29,00,27,8.30
2019,09,29,00,28,8.20
2019,09,29,00,29,8.20
2019,09,29,00,30,8.20
2019,09,29,00,31,8.20
2019,09,29,00,32,8.20
2019,09,29,00,33,8.20
2019,09,29,00,34,8.20
2019,09,29,00,35,8.30
2019,09,29,00,36,8.30
2019,09,29,00,37,8.40
2019,09,29,00,38,8.40
2019,09,29,00,39,8.40
2019,09,29,00,40,8.40
2019,09,29,00,41,8.40
2019,09,29,00,42,8.40
2019,09,29,00,43,8.40
2019,09,29,00,44,8.40
2019,09,29,00,45,8.30
2019,09,29,00,46,8.40
2019,09,29,00,47,8.30
2019,09,29,00,48,8.30
2019,09,29,00,49,8.30
2019,09,29,00,50,8.30
2019,09,29,00,51,8.30
2019,09,29,00,52,8.20
2019,09,29,00,53,8.20
2019,09,29,00,54,8.20
2019,09,29,00,55,8.20
2019,09,29,00,56,8.20
2019,09,29,00,57,8.20
2019,09,29,00,58,8.20
2019,09,29,00,59,8.20
2019,09,29,01,00,8.20
2019,09,29,01,01,8.20
2019,09,29,01,02,8.20
2019,09,29,01,03,8.20
2019,09,29,01,04,8.20
2019,09,29,01,05,8.20
2019,09,29,01,06,8.20
2019,09,29,01,07,8.20
2019,09,29,01,08,8.20
2019,09,29,01,09,8.20
2019,09,29,01,10,8.20
2019,09,29,01,11,8.20
2019,09,29,01,12,8.20
2019,09,29,01,13,8.20
2019,09,29,01,14,8.20
2019,09,29,01,15,8.20
2019,09,29,01,16,8.20
2019,09,29,01,17,8.20
2019,09,29,01,18,8.20
2019,09,29,01,19,8.30
2019,09,29,01,20,8.30
2019,09,29,01,21,8.30
2019,09,29,01,22,8.30
2019,09,29,01,23,8.30
2019,09,29,01,24,8.30
2019,09,29,01,25,8.20
2019,09,29,01,26,8.20
2019,09,29,01,27,8.20
2019,09,29,01,28,8.20
2019,09,29,01,29,8.10
2019,09,29,01,30,8.10
2019,09,29,01,31,8.10
2019,09,29,01,32,8.10
2019,09,29,01,33,8.10
2019,09,29,01,34,8.10
2019,09,29,01,35,8.10
2019,09,29,01,36,8.10
2019,09,29,01,37,8.10
2019,09,29,01,38,8.10
2019,09,29,01,39,8.00
2019,09,29,01,40,8.00
2019,09,29,01,41,7.90
2019,09,29,01,42,8.00
2019,09,29,01,43,8.00
2019,09,29,01,44,7.90
2019,09,29,01,45,7.90
2019,09,29,01,46,7.90
2019,09,29,01,47,7.90
2019,09,29,01,48,7.90
2019,09,29,01,49,7.90
2019,09,29,01,50,7.80
2019,09,29,01,51,7.80
2019,09,29,01,52,7.80
2019,09,29,01,53,7.80
2019,09,29,01,54,7.80
2019,09,29,01,55,7.80
2019,09,29,01,56,7.70
2019,09,29,01,57,7.70
2019,09,29,01,58,7.70
2019,09,29,01,59,7.70
2019,09,29,02,00,7.70
2019,09,29,02,01,7.70
2019,09,29,02,02,7.70
2019,09,29,02,03,7.70
2019,09,29,02,04,7.70
2019,09,29,02,05,7.60
2019,09,29,02,06,7.60
2019,09,29,02,07,7.60
2019,09,29,02,08,7.60
2019,09,29,02,09,7.50
2019,09,29,02,10,7.50
2019,09,29,02,11,7.40
2019,09,29,02,12,7.40
2019,09,29,02,13,7.40
2019,09,29,02,14,7.40
2019,09,29,02,15,7.40
2019,09,29,02,16,7.40
2019,09,29,02,17,7.40
2019,09,29,02,18,7.40
2019,09,29,02,19,7.40
2019,09,29,02,20,7.40
2019,09,29,02,21,7.40
2019,09,29,02,22,7.40
2019,09,29,02,23,7.40
2019,09,29,02,24,7.40
2019,09,29,02,25,7.30
2019,09,29,02,26,7.30
2019,09,29,02,27,7.30
2019,09,29,02,28,7.30
2019,09,29,02,29,7.30
2019,09,29,02,30,7.30
2019,09,29,02,31,7.20
2019,09,29,02,32,7.20
2019,09,29,02,33,7.20
2019,09,29,02,34,7.20
2019,09,29,02,35,7.20
2019,09,29,02,36,7.20
2019,09,29,02,37,7.10
2019,09,29,02,38,7.10
2019,09,29,02,39,7.10
2019,09,29,02,40,7.10
2019,09,29,02,41,7.10
2019,09,29,02,42,7.00
2019,09,29,02,43,7.00
2019,09,29,02,44,7.00
2019,09,29,02,45,6.90
2019,09,29,02,46,6.90
2019,09,29,02,47,6.90
2019,09,29,02,48,6.90
2019,09,29,02,49,6.90
2019,09,29,02,50,6.80
2019,09,29,02,51,6.80
2019,09,29,02,52,6.80
2019,09,29,02,53,6.80
2019,09,29,02,54,6.80
2019,09,29,02,55,6.80
2019,09,29,02,56,6.80
2019,09,29,02,57,6.70
2019,09,29,02,58,6.70
2019,09,29,02,59,6.70
2019,09,29,03,00,6.70
2019,09,29,03,01,6.70
2019,09,29,03,02,6.60
2019,09,29,03,03,6.60
2019,09,29,03,04,6.60
2019,09,29,03,05,6.60
2019,09,29,03,06,6.60
2019,09,29,03,07,6.60
2019,09,29,03,08,6.60
2019,09,29,03,09,6.60
2019,09,29,03,10,6.50
2019,09,29,03,11,6.50
2019,09,29,03,12,6.40
2019,09,29,03,13,6.40
2019,09,29,03,14,6.40
2019,09,29,03,15,6.40
2019,09,29,03,16,6.40
2019,09,29,03,17,6.40
2019,09,29,03,18,6.30
2019,09,29,03,19,6.30
2019,09,29,03,20,6.30
2019,09,29,03,21,6.30
2019,09,29,03,22,6.30
2019,09,29,03,23,6.30
2019,09,29,03,24,6.20
2019,09,29,03,25,6.20
2019,09,29,03,26,6.20
2019,09,29,03,27,6.20
2019,09,29,03,28,6.20
2019,09,29,03,29,6.20
2019,09,29,03,30,6.10
2019,09,29,03,31,6.10
2019,09,29,03,32,6.10
2019,09,29,03,33,6.10
2019,09,29,03,34,6.10
2019,09,29,03,35,6.10
2019,09,29,03,36,6.10
2019,09,29,03,37,6.10
2019,09,29,03,38,6.10
2019,09,29,03,39,6.10
2019,09,29,03,40,6.10
2019,09,29,03,41,6.00
2019,09,29,03,42,6.00
2019,09,29,03,43,6.00
2019,09,29,03,44,6.00
2019,09,29,03,45,6.00
2019,09,29,03,46,6.00
2019,09,29,03,47,6.00
2019,09,29,03,48,6.00
2019,09,29,03,49,6.00
2019,09,29,03,50,6.00
2019,09,29,03,51,6.00
2019,09,29,03,52,6.00
2019,09,29,03,53,6.00
2019,09,29,03,54,6.00
2019,09,29,03,55,6.00
2019,09,29,03,56,5.90
2019,09,29,03,57,6.00
2019,09,29,03,58,5.90
2019,09,29,03,59,5.90
2019,09,29,04,00,5.90
2019,09,29,04,01,5.90
2019,09,29,04,02,5.90
2019,09,29,04,03,5.90
2019,09,29,04,04,6.00
2019,09,29,04,05,6.00
2019,09,29,04,06,6.00
2019,09,29,04,07,6.10
2019,09,29,04,08,6.10
2019,09,29,04,09,6.10
2019,09,29,04,10,6.10
2019,09,29,04,11,6.10
2019,09,29,04,12,6.10
2019,09,29,04,13,6.10
2019,09,29,04,14,6.10
2019,09,29,04,15,6.10
2019,09,29,04,16,6.10
2019,09,29,04,17,6.10
2019,09,29,04,18,6.10
2019,09,29,04,19,6.10
2019,09,29,04,20,6.10
2019,09,29,04,21,6.10
2019,09,29,04,22,6.10
2019,09,29,04,23,6.10
2019,09,29,04,24,6.10
2019,09,29,04,25,6.20
2019,09,29,04,26,6.10
2019,09,29,04,27,6.20
2019,09,29,04,28,6.20
2019,09,29,04,29,6.20
2019,09,29,04,30,6.20
2019,09,29,04,31,6.20
2019,09,29,04,32,6.20
2019,09,29,04,33,6.20
2019,09,29,04,34,6.20
2019,09,29,04,35,6.20
2019,09,29,04,36,6.20
2019,09,29,04,37,6.20
2019,09,29,04,38,6.20
2019,09,29,04,39,6.20
2019,09,29,04,40,6.20
2019,09,29,04,41,6.20
2019,09,29,04,42,6.20
2019,09,29,04,43,6.20
2019,09,29,04,44,6.20
2019,09,29,04,45,6.20
2019,09,29,04,46,6.20
2019,09,29,04,47,6.20
2019,09,29,04,48,6.20
2019,09,29,04,49,6.10
2019,09,29,04,50,6.10
2019,09,29,04,51,6.10
2019,09,29,04,52,6.10
2019,09,29,04,53,6.10
2019,09,29,04,54,6.10
2019,09,29,04,55,6.10
2019,09,29,04,56,6.10
2019,09,29,04,57,6.10
2019,09,29,04,58,6.00
2019,09,29,04,59,6.00
2019,09,29,05,00,6.00
2019,09,29,05,01,5.90
2019,09,29,05,02,5.90
2019,09,29,05,03,5.90
2019,09,29,05,04,5.90
2019,09,29,05,05,5.90
2019,09,29,05,06,5.90
2019,09,29,05,07,5.90
2019,09,29,05,08,5.90
2019,09,29,05,09,5.90
2019,09,29,05,10,5.90
2019,09,29,05,11,5.90
2019,09,29,05,12,5.80
2019,09,29,05,13,5.80
2019,09,29,05,14,5.80
2019,09,29,05,15,5.80
2019,09,29,05,16,5.80
2019,09,29,05,17,5.80
2019,09,29,05,18,5.80
2019,09,29,05,19,5.80
2019,09,29,05,20,5.80
2019,09,29,05,21,5.80
2019,09,29,05,22,5.80
2019,09,29,05,23,5.70
2019,09,29,05,24,5.70
2019,09,29,05,25,5.70
2019,09,29,05,26,5.70
2019,09,29,05,27,5.70
2019,09,29,05,28,5.70
2019,09,29,05,29,5.70
2019,09,29,05,30,5.70
2019,09,29,05,31,5.70
2019,09,29,05,32,5.70
2019,09,29,05,33,5.60
2019,09,29,05,34,5.60
2019,09,29,05,35,5.60
2019,09,29,05,36,5.60
2019,09,29,05,37,5.60
2019,09,29,05,38,5.50
2019,09,29,05,39,5.50
2019,09,29,05,40,5.50
2019,09,29,05,41,5.40
2019,09,29,05,42,5.40
2019,09,29,05,43,5.40
2019,09,29,05,44,5.40
2019,09,29,05,45,5.40
2019,09,29,05,46,5.30
2019,09,29,05,47,5.30
2019,09,29,05,48,5.30
2019,09,29,05,49,5.30
2019,09,29,05,50,5.30
2019,09,29,05,51,5.30
2019,09,29,05,52,5.30
2019,09,29,05,53,5.20
2019,09,29,05,54,5.20
2019,09,29,05,55,5.20
2019,09,29,05,56,5.20
2019,09,29,05,57,5.20
2019,09,29,05,58,5.20
2019,09,29,05,59,5.20
2019,09,29,06,00,5.20
2019,09,29,06,01,5.20
2019,09,29,06,02,5.10
2019,09,29,06,03,5.10
2019,09,29,06,04,5.10
2019,09,29,06,05,5.10
2019,09,29,06,06,5.10
2019,09,29,06,07,5.10
2019,09,29,06,08,5.10
2019,09,29,06,09,5.10
2019,09,29,06,10,5.00
2019,09,29,06,11,5.00
2019,09,29,06,12,5.00
2019,09,29,06,13,4.90
2019,09,29,06,14,4.90
2019,09,29,06,15,4.90
2019,09,29,06,16,4.90
2019,09,29,06,17,4.90
2019,09,29,06,18,5.00
2019,09,29,06,19,5.00
2019,09,29,06,20,5.10
2019,09,29,06,21,5.10
2019,09,29,06,22,5.10
2019,09,29,06,23,5.10
2019,09,29,06,24,5.10
2019,09,29,06,25,5.10
2019,09,29,06,26,5.10
2019,09,29,06,27,5.20
2019,09,29,06,28,5.20
2019,09,29,06,29,5.20
2019,09,29,06,30,5.20
2019,09,29,06,31,5.20
2019,09,29,06,32,5.20
2019,09,29,06,33,5.20
2019,09,29,06,34,5.20
2019,09,29,06,35,5.20
2019,09,29,06,36,5.20
2019,09,29,06,37,5.20
2019,09,29,06,38,5.20
2019,09,29,06,39,5.20
2019,09,29,06,40,5.20
2019,09,29,06,41,5.20
2019,09,29,06,42,5.20
2019,09,29,06,43,5.30
2019,09,29,06,44,5.30
2019,09,29,06,45,5.30
2019,09,29,06,46,5.30
2019,09,29,06,47,5.30
2019,09,29,06,48,5.20
2019,09,29,06,49,5.20
2019,09,29,06,50,5.20
2019,09,29,06,51,5.20
2019,09,29,06,52,5.20
2019,09,29,06,53,5.20
2019,09,29,06,54,5.20
2019,09,29,06,55,5.20
2019,09,29,06,56,5.10
2019,09,29,06,57,5.10
2019,09,29,06,58,5.10
2019,09,29,06,59,5.10
2019,09,29,07,00,5.10
2019,09,29,07,01,5.10
2019,09,29,07,02,5.10
2019,09,29,07,03,5.00
2019,09,29,07,04,5.00
2019,09,29,07,05,5.00
2019,09,29,07,06,4.90
2019,09,29,07,07,4.90
2019,09,29,07,08,4.90
2019,09,29,07,09,4.90
2019,09,29,07,10,4.90
2019,09,29,07,11,4.90
2019,09,29,07,12,4.80
2019,09,29,07,13,4.80
2019,09,29,07,14,4.80
2019,09,29,07,15,4.80
2019,09,29,07,16,4.80
2019,09,29,07,17,4.80
2019,09,29,07,18,4.80
2019,09,29,07,19,4.80
2019,09,29,07,20,4.80
2019,09,29,07,21,4.70
2019,09,29,07,22,4.70
2019,09,29,07,23,4.70
2019,09,29,07,24,4.70
2019,09,29,07,25,4.70
2019,09,29,07,26,4.70
2019,09,29,07,27,4.70
2019,09,29,07,28,4.60
2019,09,29,07,29,4.60
2019,09,29,07,30,4.60
2019,09,29,07,31,4.60
2019,09,29,07,32,4.60
2019,09,29,07,33,4.60
2019,09,29,07,34,4.60
2019,09,29,07,35,4.60
2019,09,29,07,36,4.60
2019,09,29,07,37,4.60
2019,09,29,07,38,4.60
2019,09,29,07,39,4.60
2019,09,29,07,40,4.60
2019,09,29,07,41,4.60
2019,09,29,07,42,4.60
2019,09,29,07,43,4.60
2019,09,29,07,44,4.60
2019,09,29,07,45,4.60
2019,09,29,07,46,4.60
2019,09,29,07,47,4.60
2019,09,29,07,48,4.60
2019,09,29,07,49,4.60
2019,09,29,07,50,4.60
2019,09,29,07,51,4.60
2019,09,29,07,52,4.60
2019,09,29,07,53,4.60
2019,09,29,07,54,4.60
2019,09,29,07,55,4.60
2019,09,29,07,56,4.60
2019,09,29,07,57,4.60
2019,09,29,07,58,4.60
2019,09,29,07,59,4.60
2019,09,29,08,00,4.60
2019,09,29,08,01,4.60
2019,09,29,08,02,4.60
2019,09,29,08,03,4.60
2019,09,29,08,04,4.60
2019,09,29,08,05,4.60
2019,09,29,08,06,4.60
2019,09,29,08,07,4.70
2019,09,29,08,08,4.70
2019,09,29,08,09,4.70
2019,09,29,08,10,4.70
2019,09,29,08,11,4.70
2019,09,29,08,12,4.70
2019,09,29,08,13,4.70
2019,09,29,08,14,4.70
2019,09,29,08,15,4.70
2019,09,29,08,16,4.70
2019,09,29,08,17,4.70
2019,09,29,08,18,4.80
2019,09,29,08,19,4.80
2019,09,29,08,20,4.80
2019,09,29,08,21,4.80
2019,09,29,08,22,4.80
2019,09,29,08,23,4.80
2019,09,29,08,24,4.80
2019,09,29,08,25,4.80
2019,09,29,08,26,4.80
2019,09,29,08,27,4.80
2019,09,29,08,28,4.80
2019,09,29,08,29,4.80
2019,09,29,08,30,4.80
2019,09,29,08,31,4.90
2019,09,29,08,32,4.90
2019,09,29,08,33,4.90
2019,09,29,08,34,4.90
2019,09,29,08,35,4.90
2019,09,29,08,36,4.90
2019,09,29,08,37,4.90
2019,09,29,08,38,4.90
2019,09,29,08,39,4.90
2019,09,29,08,40,4.90
2019,09,29,08,41,4.90
2019,09,29,08,42,4.90
2019,09,29,08,43,4.90
2019,09,29,08,44,5.00
2019,09,29,08,45,5.00
2019,09,29,08,46,5.00
2019,09,29,08,47,5.00
2019,09,29,08,48,5.10
2019,09,29,08,49,5.10
2019,09,29,08,50,5.10
2019,09,29,08,51,5.10
2019,09,29,08,52,5.20
2019,09,29,08,53,5.20
2019,09,29,08,54,5.20
2019,09,29,08,55,5.20
2019,09,29,08,56,5.30
2019,09,29,08,57,5.30
2019,09,29,08,58,5.30
2019,09,29,08,59,5.40
2019,09,29,09,00,5.40
2019,09,29,09,01,5.40
2019,09,29,09,02,5.50
2019,09,29,09,03,5.60
2019,09,29,09,04,5.70
2019,09,29,09,05,5.70
2019,09,29,09,06,5.80
2019,09,29,09,07,5.80
2019,09,29,09,08,5.90
2019,09,29,09,09,5.90
2019,09,29,09,10,6.00
2019,09,29,09,11,6.10
2019,09,29,09,12,6.20
2019,09,29,09,13,6.30
2019,09,29,09,14,6.40
2019,09,29,09,15,6.50
2019,09,29,09,16,6.60
2019,09,29,09,17,6.70
2019,09,29,09,18,6.80
2019,09,29,09,19,6.90
2019,09,29,09,20,6.90
2019,09,29,09,21,7.10
2019,09,29,09,22,7.20
2019,09,29,09,23,7.30
2019,09,29,09,24,7.40
2019,09,29,09,25,7.50
2019,09,29,09,26,7.60
2019,09,29,09,27,7.70
2019,09,29,09,28,7.80
2019,09,29,09,29,7.80
2019,09,29,09,30,7.90
2019,09,29,09,31,8.00
2019,09,29,09,32,8.10
2019,09,29,09,33,8.20
2019,09,29,09,34,8.20
2019,09,29,09,35,8.30
2019,09,29,09,36,8.40
2019,09,29,09,37,8.60
2019,09,29,09,38,8.70
2019,09,29,09,39,8.80
2019,09,29,09,40,8.80
2019,09,29,09,41,8.90
2019,09,29,09,42,8.90
2019,09,29,09,43,8.90
2019,09,29,09,44,9.00
2019,09,29,09,45,9.10
2019,09,29,09,46,9.10
2019,09,29,09,47,9.10
2019,09,29,09,48,9.00
2019,09,29,09,49,9.00
2019,09,29,09,50,8.90
2019,09,29,09,51,8.90
2019,09,29,09,52,8.90
2019,09,29,09,53,8.90
2019,09,29,09,54,8.90
2019,09,29,09,55,8.90
2019,09,29,09,56,9.00
2019,09,29,09,57,9.10
2019,09,29,09,58,9.10
2019,09,29,09,59,9.10
2019,09,29,10,00,9.10
2019,09,29,10,01,9.10
2019,09,29,10,02,9.20
2019,09,29,10,03,9.20
2019,09,29,10,04,9.20
2019,09,29,10,05,9.30
2019,09,29,10,06,9.40
2019,09,29,10,07,9.40
2019,09,29,10,08,9.50
2019,09,29,10,09,9.60
2019,09,29,10,10,9.60
2019,09,29,10,11,9.60
2019,09,29,10,12,9.70
2019,09,29,10,13,9.70
2019,09,29,10,14,9.70
2019,09,29,10,15,9.80
2019,09,29,10,16,9.80
2019,09,29,10,17,9.90
2019,09,29,10,18,10.00
2019,09,29,10,19,10.10
2019,09,29,10,20,10.10
2019,09,29,10,21,10.20
2019,09,29,10,22,10.30
2019,09,29,10,23,10.30
2019,09,29,10,24,10.40
2019,09,29,10,25,10.50
2019,09,29,10,26,10.60
2019,09,29,10,27,10.60
2019,09,29,10,28,10.60
2019,09,29,10,29,10.60
2019,09,29,10,30,10.60
2019,09,29,10,31,10.60
2019,09,29,10,32,10.60
2019,09,29,10,33,10.70
2019,09,29,10,34,10.70
2019,09,29,10,35,10.70
2019,09,29,10,36,10.80
2019,09,29,10,37,10.80
2019,09,29,10,38,10.90
2019,09,29,10,39,11.10
2019,09,29,10,40,11.10
2019,09,29,10,41,11.20
2019,09,29,10,42,11.20
2019,09,29,10,43,11.30
2019,09,29,10,44,11.30
2019,09,29,10,45,11.40
2019,09,29,10,46,11.60
2019,09,29,10,47,11.70
2019,09,29,10,48,11.80
2019,09,29,10,49,11.90
2019,09,29,10,50,12.00
2019,09,29,10,51,12.10
2019,09,29,10,52,12.10
2019,09,29,10,53,12.20
2019,09,29,10,54,12.30
2019,09,29,10,55,12.30
2019,09,29,10,56,12.40
2019,09,29,10,57,12.50
2019,09,29,10,58,12.60
2019,09,29,10,59,12.70
2019,09,29,11,00,12.80
2019,09,29,11,01,12.90
2019,09,29,11,02,12.90
2019,09,29,11,03,13.10
2019,09,29,11,04,13.10
2019,09,29,11,05,13.10
2019,09,29,11,06,13.10
2019,09,29,11,07,13.10
2019,09,29,11,08,13.10
2019,09,29,11,09,13.10
2019,09,29,11,10,13.10
2019,09,29,11,11,13.10
2019,09,29,11,12,13.20
2019,09,29,11,13,13.20
2019,09,29,11,14,13.20
2019,09,29,11,15,13.30
2019,09,29,11,16,13.30
2019,09,29,11,17,13.40
2019,09,29,11,18,13.40
2019,09,29,11,19,13.50
2019,09,29,11,20,13.60
2019,09,29,11,21,13.60
2019,09,29,11,22,13.70
2019,09,29,11,23,13.70
2019,09,29,11,24,13.80
2019,09,29,11,25,13.80
2019,09,29,11,26,13.90
2019,09,29,11,27,13.90
2019,09,29,11,28,14.10
2019,09,29,11,29,14.10
2019,09,29,11,30,14.20
2019,09,29,11,31,14.20
2019,09,29,11,32,14.30
2019,09,29,11,33,14.30
2019,09,29,11,34,14.40
2019,09,29,11,35,14.40
2019,09,29,11,36,14.40
2019,09,29,11,37,14.50
2019,09,29,11,38,14.60
2019,09,29,11,39,14.60
2019,09,29,11,40,14.70
2019,09,29,11,41,14.70
2019,09,29,11,42,14.80
2019,09,29,11,43,14.80
2019,09,29,11,44,14.80
2019,09,29,11,45,14.90
2019,09,29,11,46,14.90
2019,09,29,11,47,14.90
2019,09,29,11,48,15.00
2019,09,29,11,49,15.10
2019,09,29,11,50,15.20
2019,09,29,11,51,15.20
2019,09,29,11,52,15.20
2019,09,29,11,53,15.20
2019,09,29,11,54,15.30
2019,09,29,11,55,15.30
2019,09,29,11,56,15.30
2019,09,29,11,57,15.40
2019,09,29,11,58,15.40
2019,09,29,11,59,15.50
2019,09,29,12,00,15.60
2019,09,29,12,01,15.70
2019,09,29,12,02,15.70
2019,09,29,12,03,15.70
2019,09,29,12,04,15.80
2019,09,29,12,05,15.80
2019,09,29,12,06,15.90
2019,09,29,12,07,15.90
2019,09,29,12,08,16.00
2019,09,29,12,09,16.10
2019,09,29,12,10,16.10
2019,09,29,12,11,16.20
2019,09,29,12,12,16.20
2019,09,29,12,13,16.20
2019,09,29,12,14,16.20
2019,09,29,12,15,16.20
2019,09,29,12,16,16.30
2019,09,29,12,17,16.20
2019,09,29,12,18,16.10
2019,09,29,12,19,15.90
2019,09,29,12,20,15.80
2019,09,29,12,21,15.70
2019,09,29,12,22,15.60
2019,09,29,12,23,15.50
2019,09,29,12,24,15.40
2019,09,29,12,25,15.40
2019,09,29,12,26,15.50
2019,09,29,12,27,15.60
2019,09,29,12,28,15.70
2019,09,29,12,29,15.80
2019,09,29,12,30,15.90
2019,09,29,12,31,16.00
2019,09,29,12,32,16.10
2019,09,29,12,33,16.20
2019,09,29,12,34,16.20
2019,09,29,12,35,16.20
2019,09,29,12,36,16.20
2019,09,29,12,37,16.30
2019,09,29,12,38,16.30
2019,09,29,12,39,16.40
2019,09,29,12,40,16.30
2019,09,29,12,41,16.30
2019,09,29,12,42,16.30
2019,09,29,12,43,16.10
2019,09,29,12,44,16.10
2019,09,29,12,45,16.10
2019,09,29,12,46,15.90
2019,09,29,12,47,15.80
2019,09,29,12,48,15.60
2019,09,29,12,49,15.40
2019,09,29,12,50,15.30
2019,09,29,12,51,15.20
2019,09,29,12,52,15.30
2019,09,29,12,53,15.40
2019,09,29,12,54,15.50
2019,09,29,12,55,15.60
2019,09,29,12,56,15.80
2019,09,29,12,57,15.90
2019,09,29,12,58,16.00
2019,09,29,12,59,16.10
2019,09,29,13,00,16.10
2019,09,29,13,01,16.20
2019,09,29,13,02,16.30
2019,09,29,13,03,16.30
2019,09,29,13,04,16.20
2019,09,29,13,05,16.20
2019,09,29,13,06,16.20
2019,09,29,13,07,16.10
2019,09,29,13,08,16.00
2019,09,29,13,09,15.90
2019,09,29,13,10,15.90
2019,09,29,13,11,15.90
2019,09,29,13,12,15.90
2019,09,29,13,13,16.00
2019,09,29,13,14,16.00
2019,09,29,13,15,16.10
2019,09,29,13,16,16.10
2019,09,29,13,17,16.10
2019,09,29,13,18,16.20
2019,09,29,13,19,16.30
2019,09,29,13,20,16.30
2019,09,29,13,21,16.30
2019,09,29,13,22,16.30
2019,09,29,13,23,16.30
2019,09,29,13,24,16.30
2019,09,29,13,25,16.30
2019,09,29,13,26,16.30
2019,09,29,13,27,16.20
2019,09,29,13,28,16.20
2019,09,29,13,29,16.20
2019,09,29,13,30,16.10
2019,09,29,13,31,16.20
2019,09,29,13,32,16.20
2019,09,29,13,33,16.30
2019,09,29,13,34,16.30
2019,09,29,13,35,16.40
2019,09,29,13,36,16.40
2019,09,29,13,37,16.40
2019,09,29,13,38,16.40
2019,09,29,13,39,16.40
2019,09,29,13,40,16.50
2019,09,29,13,41,16.40
2019,09,29,13,42,16.40
2019,09,29,13,43,16.30
2019,09,29,13,44,16.30
2019,09,29,13,45,16.30
2019,09,29,13,46,16.20
2019,09,29,13,47,16.10
2019,09,29,13,48,16.10
2019,09,29,13,49,16.20
2019,09,29,13,50,16.20
2019,09,29,13,51,16.20
2019,09,29,13,52,16.30
2019,09,29,13,53,16.40
2019,09,29,13,54,16.40
2019,09,29,13,55,16.50
2019,09,29,13,56,16.60
2019,09,29,13,57,16.60
2019,09,29,13,58,16.60
2019,09,29,13,59,16.70
2019,09,29,14,00,16.70
2019,09,29,14,01,16.60
2019,09,29,14,02,16.40
2019,09,29,14,03,16.40
2019,09,29,14,04,16.20
2019,09,29,14,05,16.00
2019,09,29,14,06,15.90
2019,09,29,14,07,15.90
2019,09,29,14,08,15.80
2019,09,29,14,09,15.80
2019,09,29,14,10,15.80
2019,09,29,14,11,15.80
2019,09,29,14,12,15.80
2019,09,29,14,13,15.80
2019,09,29,14,14,15.80
2019,09,29,14,15,15.80
2019,09,29,14,16,15.80
2019,09,29,14,17,15.80
2019,09,29,14,18,15.80
2019,09,29,14,19,15.80
2019,09,29,14,20,15.70
2019,09,29,14,21,15.60
2019,09,29,14,22,15.60
2019,09,29,14,23,15.60
2019,09,29,14,24,15.70
2019,09,29,14,25,15.70
2019,09,29,14,26,15.70
2019,09,29,14,27,15.70
2019,09,29,14,28,15.80
2019,09,29,14,29,15.90
2019,09,29,14,30,16.10
2019,09,29,14,31,16.20
2019,09,29,14,32,16.30
2019,09,29,14,33,16.30
2019,09,29,14,34,16.40
2019,09,29,14,35,16.40
2019,09,29,14,36,16.40
2019,09,29,14,37,16.40
2019,09,29,14,38,16.30
2019,09,29,14,39,16.20
2019,09,29,14,40,16.20
2019,09,29,14,41,16.20
2019,09,29,14,42,16.20
2019,09,29,14,43,16.20
2019,09,29,14,44,16.20
2019,09,29,14,45,16.20
2019,09,29,14,46,16.10
2019,09,29,14,47,16.00
2019,09,29,14,48,15.90
2019,09,29,14,49,15.90
2019,09,29,14,50,15.80
2019,09,29,14,51,15.70
2019,09,29,14,52,15.70
2019,09,29,14,53,15.80
2019,09,29,14,54,15.80
2019,09,29,14,55,15.90
2019,09,29,14,56,15.90
2019,09,29,14,57,16.00
2019,09,29,14,58,16.10
2019,09,29,14,59,16.00
2019,09,29,15,00,15.90
2019,09,29,15,01,15.80
2019,09,29,15,02,15.80
2019,09,29,15,03,15.80
2019,09,29,15,04,15.80
2019,09,29,15,05,15.90
2019,09,29,15,06,16.00
2019,09,29,15,07,16.10
2019,09,29,15,08,16.20
2019,09,29,15,09,16.30
2019,09,29,15,10,16.30
2019,09,29,15,11,16.30
2019,09,29,15,12,16.40
2019,09,29,15,13,16.40
2019,09,29,15,14,16.50
2019,09,29,15,15,16.40
2019,09,29,15,16,16.20
2019,09,29,15,17,16.10
2019,09,29,15,18,16.00
2019,09,29,15,19,16.00
2019,09,29,15,20,16.10
2019,09,29,15,21,16.10
2019,09,29,15,22,16.10
2019,09,29,15,23,16.00
2019,09,29,15,24,15.90
2019,09,29,15,25,16.00
2019,09,29,15,26,16.10
2019,09,29,15,27,16.20
2019,09,29,15,28,16.20
2019,09,29,15,29,16.30
2019,09,29,15,30,16.40
2019,09,29,15,31,16.60
2019,09,29,15,32,16.70
2019,09,29,15,33,16.70
2019,09,29,15,34,16.80
2019,09,29,15,35,16.80
2019,09,29,15,36,16.80
2019,09,29,15,37,16.80
2019,09,29,15,38,16.80
2019,09,29,15,39,16.70
2019,09,29,15,40,16.60
2019,09,29,15,41,16.30
2019,09,29,15,42,16.10
2019,09,29,15,43,15.80
2019,09,29,15,44,15.70
2019,09,29,15,45,15.60
2019,09,29,15,46,15.50
2019,09,29,15,47,15.40
2019,09,29,15,48,15.40
2019,09,29,15,49,15.50
2019,09,29,15,50,15.60
2019,09,29,15,51,15.60
2019,09,29,15,52,15.60
2019,09,29,15,53,15.60
2019,09,29,15,54,15.60
2019,09,29,15,55,15.60
2019,09,29,15,56,15.60
2019,09,29,15,57,15.70
2019,09,29,15,58,15.70
2019,09,29,15,59,15.80
2019,09,29,16,00,15.90
2019,09,29,16,01,16.10
2019,09,29,16,02,16.30
2019,09,29,16,03,16.40
2019,09,29,16,04,16.50
2019,09,29,16,05,16.50
2019,09,29,16,06,16.60
2019,09,29,16,07,16.60
2019,09,29,16,08,16.60
2019,09,29,16,09,16.70
2019,09,29,16,10,16.80
2019,09,29,16,11,16.80
2019,09,29,16,12,16.80
2019,09,29,16,13,16.70
2019,09,29,16,14,16.60
2019,09,29,16,15,16.60
2019,09,29,16,16,16.60
2019,09,29,16,17,16.60
2019,09,29,16,18,16.60
2019,09,29,16,19,16.70
2019,09,29,16,20,16.70
2019,09,29,16,21,16.60
2019,09,29,16,22,16.60
2019,09,29,16,23,16.60
2019,09,29,16,24,16.70
2019,09,29,16,25,16.70
2019,09,29,16,26,16.70
2019,09,29,16,27,16.80
2019,09,29,16,28,16.80
2019,09,29,16,29,16.90
2019,09,29,16,30,16.90
2019,09,29,16,31,16.80
2019,09,29,16,32,16.80
2019,09,29,16,33,16.80
2019,09,29,16,34,16.80
2019,09,29,16,35,16.80
2019,09,29,16,36,16.80
2019,09,29,16,37,16.70
2019,09,29,16,38,16.60
2019,09,29,16,39,16.60
2019,09,29,16,40,16.50
2019,09,29,16,41,16.40
2019,09,29,16,42,16.40
2019,09,29,16,43,16.30
2019,09,29,16,44,16.30
2019,09,29,16,45,16.30
2019,09,29,16,46,16.30
2019,09,29,16,47,16.30
2019,09,29,16,48,16.30
2019,09,29,16,49,16.30
2019,09,29,16,50,16.30
2019,09,29,16,51,16.30
2019,09,29,16,52,16.30
2019,09,29,16,53,16.30
2019,09,29,16,54,16.30
2019,09,29,16,55,16.30
2019,09,29,16,56,16.30
2019,09,29,16,57,16.20
2019,09,29,16,58,16.20
2019,09,29,16,59,16.20
2019,09,29,17,00,16.20
2019,09,29,17,01,16.20
2019,09,29,17,02,16.20
2019,09,29,17,03,16.10
2019,09,29,17,04,16.10
2019,09,29,17,05,16.10
2019,09,29,17,06,16.10
2019,09,29,17,07,16.00
2019,09,29,17,08,16.00
2019,09,29,17,09,15.90
2019,09,29,17,10,15.90
2019,09,29,17,11,15.90
2019,09,29,17,12,15.80
2019,09,29,17,13,15.80
2019,09,29,17,14,15.70
2019,09,29,17,15,15.70
2019,09,29,17,16,15.80
2019,09,29,17,17,15.80
2019,09,29,17,18,15.80
2019,09,29,17,19,15.80
2019,09,29,17,20,15.80
2019,09,29,17,21,15.80
2019,09,29,17,22,15.80
2019,09,29,17,23,15.90
2019,09,29,17,24,15.90
2019,09,29,17,25,15.90
2019,09,29,17,26,16.00
2019,09,29,17,27,16.00
2019,09,29,17,28,16.00
2019,09,29,17,29,16.00
2019,09,29,17,30,16.00
2019,09,29,17,31,15.90
2019,09,29,17,32,15.90
2019,09,29,17,33,15.80
2019,09,29,17,34,15.80
2019,09,29,17,35,15.80
2019,09,29,17,36,15.80
2019,09,29,17,37,15.80
2019,09,29,17,38,15.80
2019,09,29,17,39,15.80
2019,09,29,17,40,15.70
2019,09,29,17,41,15.70
2019,09,29,17,42,15.70
2019,09,29,17,43,15.70
2019,09,29,17,44,15.70
2019,09,29,17,45,15.70
2019,09,29,17,46,15.70